Aérodrome :
LOGIN :

S'inscrire | Disclaimer

   EN    FR    IT 

 










Légende :    VFR   VFR Marginal   IFR   IFR Intensif   IFR Très Intensif
Visi : 
Plafond : 
>= 8 km
>= 3000ft
5 à 8 km
1000 à 3000 ft
1500m à 5 km
500 à 1000 ft
800 à 1500m
200 à 500 ft
< 800m
< 200 ft
Symboles :   Orages  Brouillard  Fortes neiges  Fortes précipitations  Vent > 20 kt
SIGMETs :   Divers  Orages  Givrage  Turbulence  Onde Orograph.  Cendres Volcan.






- Altitude de l'aérodrome : 659 ft
- Code IATA : LGG


EBLG - Liège

DERNIER METAR :
  • 221520Z 13009KT CAVOK 09/04 Q1002 NOSIG

METARs EXPIRÉS :
  • 221450Z 14010KT CAVOK 09/04 Q1002 NOSIG
  • 221420Z 13009KT CAVOK 09/04 Q1002 NOSIG
  • 221350Z 14006KT CAVOK 09/04 Q1003 NOSIG
  • 221320Z 14009KT CAVOK 09/04 Q1003 NOSIG
  • 221250Z 15008KT 120V180 CAVOK 10/04 Q1003 NOSIG

TAF TAF EBLG
Valide du 22 à 12h jusqu'au 23 à 18h UTC


221100Z 2212/2318 14008KT 9999 FEW020



MET'MAP, la Météo Aéronautique d'un coup d'oeil ! - Copyright ORBIFLY Décembre 2007 - Disclaimer

ORBIFLY MET'MAP TEAM :

Programmation & Développement : Alexandra Zaïnal
Conception & Développement : Baudouin d'Aumeries
Co-Programmation & Développement : Marc-Olivier Méhu
Soutien technique & logistique : Manuel Goepfert

Contact : metmap@orbifly.com




SOURCES & CREDITS :

   NOAA